[[{"header":{"parameterUnit":"m.s-1","parameterCategory":1,"la1":30.2991,"la2":30.254,"lo1":-89.0895,"lo2":-89.0444,"dy":0.0017,"dx":0.0017,"nx":28,"ny":28,"refTime":"2024-02-19T09:00:00:Z","depth":0,"parameterNumber":2,"parameterNumberName":"U-component_of_WINDS"},"data":[0,0,0,0,0,0,0,0,0,0,0,0,0,0,0,0,0,0,0,0,0,0,0,0,0,0,0,0,0,0,0,0,0,0,0,0,0,0,0,0,0,0,0,0,0,0,0,0,0,0,0,0,0,0,0,0,0,0,1.3368,1.3369,0,1.3533,1.3535,1.3537,1.3608,1.3607,1.3607,1.3607,1.3775,1.3779,1.3784,0,0,0,0,0,0,0,0,0,0,0,0,0,1.3111,1.3116,1.3367,1.337,1.3372,1.3533,1.3535,1.3537,1.3608,1.3607,1.3607,1.3607,1.3773,1.3779,1.3784,0,0,0,0,0,0,0,0,0,0,0,0,0,1.3244,1.3117,1.3367,1.3426,1.3433,1.3532,1.3535,1.3538,1.3608,1.3607,1.3607,1.3607,1.3771,1.3778,1.3785,1.3837,0,0,1.3807,1.381,0,0,0,0,0,0,0,0,1.3236,1.3253,1.3416,1.3422,1.343,1.3549,1.3506,1.3638,1.3608,1.3541,1.3607,1.3606,1.37,1.3713,1.3745,1.3845,1.3852,1.3807,1.3812,1.3815,1.3817,0,0,0,0,0,0,0,1.3227,1.3247,1.3433,1.3418,1.3427,1.3444,1.3462,1.3531,1.3621,1.3547,1.3553,1.3571,1.3704,1.3738,1.3749,1.3854,1.3807,1.3813,1.3818,1.382,1.4005,1.4006,0,0,0,0,0,0,1.3208,1.3239,1.3428,1.3438,1.333,1.3449,1.347,1.3511,1.362,1.3637,1.3572,1.3574,1.3726,1.3741,1.3755,1.3823,1.3815,1.3821,1.3825,1.4004,1.4005,1.4006,0,0,0,0,0,0,1.3203,1.3225,1.3421,1.334,1.3366,1.3454,1.35,1.3515,1.3549,1.3639,1.3655,1.359,1.3726,1.3745,1.3816,1.383,1.3824,1.3831,1.4004,1.4005,1.4006,1.3959,0,0,0,0,0,0,1.3195,1.3222,1.3243,1.334,1.337,1.3479,1.3501,1.3519,1.3561,1.3566,1.366,1.3675,1.3727,1.3805,1.3823,1.384,1.3836,1.4003,1.4004,1.4005,1.396,1.3958,1.3957,0,0,0,0,0,1.3186,1.3223,1.3244,1.3266,1.3398,1.348,1.3498,1.3557,1.3562,1.3584,1.3641,1.3672,1.3825,1.3812,1.3833,1.3851,1.4002,1.4004,1.4005,1.396,1.3959,1.3957,0,0,0,0,0,0,1.3126,1.3237,1.3261,1.3331,1.3396,1.3492,1.3521,1.3553,1.3617,1.3619,1.3689,1.371,1.3775,1.382,1.3803,1.3907,1.3916,1.3922,1.3875,1.3874,1.3873,1.3861,1.3842,0,0,0,0,0,1.312,1.3178,1.3272,1.3325,1.3356,1.3433,1.3471,1.3511,1.358,1.3608,1.3671,1.3736,1.3799,1.3839,1.3902,1.3967,1.3988,1.399,1.3988,1.3987,1.3991,1.4028,1.403,1.4011,1.4011,1.4011,0,0,1.311,1.3178,1.3211,1.3314,1.3369,1.3427,1.3455,1.3515,1.3558,1.3617,1.3688,1.3736,1.3814,1.3882,1.3915,1.3922,1.4001,1.3989,1.3987,1.3992,1.403,1.4032,1.4033,1.4012,1.4012,1.4012,0,0,1.3122,1.3179,1.3229,1.3284,1.3366,1.3417,1.3429,1.3521,1.3555,1.3627,1.3672,1.3724,1.3831,1.3885,1.3926,1.3958,1.3989,1.3976,1.3969,1.4005,1.4006,1.4008,1.4019,1.4022,1.398,1.398,1.398,0,1.3099,1.3188,1.3251,1.3309,1.3353,1.3408,1.3459,1.3509,1.3607,1.3636,1.3643,1.3778,1.3835,1.3916,1.3923,1.3955,1.397,1.3966,1.4001,1.4003,1.4006,1.4017,1.4021,1.3978,1.3978,1.3978,1.3978,0,1.3156,1.3217,1.3247,1.3342,1.3389,1.3443,1.3513,1.3554,1.359,1.3639,1.3712,1.3782,1.386,1.3882,1.3917,1.3968,1.397,1.3988,1.3998,1.4005,1.4016,1.4021,1.3975,1.3975,1.3976,1.3977,0,0,1.3134,1.3263,1.3273,1.3316,1.3411,1.3459,1.3515,1.3592,1.3625,1.3691,1.374,1.3829,1.3846,1.3893,1.3935,1.3966,1.3986,1.398,1.3983,1.3979,1.4046,1.4032,1.4036,1.4007,1.4008,1.4009,1.4039,0,1.3159,1.3262,1.332,1.3399,1.3456,1.351,1.3559,1.3622,1.367,1.3724,1.3777,1.3839,1.3857,1.3886,1.3919,1.3976,1.4,1.3975,1.4052,1.4054,1.4031,1.4042,1.4028,1.4053,1.4044,1.4045,1.4046,0,1.3201,1.3267,1.3351,1.344,1.3466,1.3509,1.3584,1.3635,1.3708,1.3741,1.3792,1.3834,1.3895,1.39,1.3985,1.3966,1.4001,1.4034,1.4036,1.4046,1.405,1.4052,1.4063,1.4066,1.4054,1.4053,1.4053,0,1.3177,1.3286,1.3351,1.3386,1.3491,1.352,1.3565,1.3637,1.3679,1.3744,1.3773,1.3843,1.3882,1.3936,1.3996,1.3994,1.4074,1.4084,1.4102,1.4101,1.4117,1.4115,1.4134,1.4139,1.4139,1.4139,1.4139,0,1.3198,1.3248,1.3342,1.3381,1.3439,1.3504,1.3559,1.3608,1.3672,1.3722,1.3772,1.3818,1.3893,1.3948,1.3995,1.4058,1.4075,1.4103,1.4115,1.4098,1.4095,1.4122,1.4122,1.414,1.414,1.414,1.4139,0,1.3181,1.3246,1.332,1.3413,1.3437,1.3475,1.3555,1.3595,1.3646,1.3708,1.3727,1.3806,1.3873,1.3937,1.4027,1.4059,1.4121,1.4137,1.4097,1.4104,1.4118,1.4116,1.4155,1.4163,1.4162,1.4162,1.4162,0,1.319,1.323,1.3327,1.3364,1.3408,1.3468,1.3511,1.3577,1.362,1.3706,1.3736,1.3807,1.3867,1.3972,1.4037,1.4106,1.4124,1.4133,1.4134,1.4117,1.4124,1.4121,1.4125,1.4131,1.4131,1.413,1.413,0,1.32,1.323,1.3291,1.3363,1.3414,1.3474,1.3535,1.3562,1.364,1.3686,1.3756,1.3802,1.3894,1.3964,1.4041,1.4086,1.4121,1.4129,1.4137,1.4121,1.4096,1.411,1.4093,1.4128,1.4128,1.4128,1.4129,1.4129,1.3197,1.3234,1.3309,1.3375,1.3428,1.3484,1.3527,1.3582,1.3642,1.3722,1.3757,1.3827,1.3899,1.4005,1.405,1.4106,1.4114,1.4126,1.4129,1.413,1.4127,1.4087,1.412,1.412,1.412,1.4121,1.4121,0,1.3209,1.3259,1.332,1.3404,1.3456,1.3485,1.3554,1.3595,1.3657,1.372,1.3779,1.3858,1.3926,1.3997,1.4068,1.4099,1.4117,1.4116,1.4115,1.4124,1.4115,1.4101,1.41,1.41,1.41,1.41,1.41,1.41,1.3222,1.3287,1.3325,1.3417,1.3467,1.3537,1.3574,1.3626,1.3677,1.3764,1.3821,1.3866,1.3933,1.401,1.4073,1.4092,1.4116,1.4111,1.4134,1.4124,1.4125,1.4126,1.4114,1.4115,1.4115,1.4139,1.4139,1.4139]},{"header":{"parameterUnit":"m.s-1","parameterCategory":1,"la1":30.2991,"la2":30.254,"lo1":-89.0895,"lo2":-89.0444,"dy":0.0017,"dx":0.0017,"nx":28,"ny":28,"refTime":"2024-02-19T09:00:00:Z","depth":0,"parameterNumber":3,"parameterNumberName":"V-component_of_WINDS"},"data":[0,0,0,0,0,0,0,0,0,0,0,0,0,0,0,0,0,0,0,0,0,0,0,0,0,0,0,0,0,0,0,0,0,0,0,0,0,0,0,0,0,0,0,0,0,0,0,0,0,0,0,0,0,0,0,0,0,0,1.4901,1.4901,0,1.4952,1.4953,1.4953,1.4945,1.4944,1.4943,1.4942,1.4993,1.4995,1.4997,0,0,0,0,0,0,0,0,0,0,0,0,0,1.4792,1.4794,1.4901,1.4901,1.4902,1.4952,1.4953,1.4953,1.4945,1.4944,1.4943,1.4942,1.4992,1.4995,1.4997,0,0,0,0,0,0,0,0,0,0,0,0,0,1.4841,1.4794,1.49,1.4904,1.4904,1.4952,1.4953,1.4954,1.4945,1.4944,1.4942,1.4941,1.4991,1.4994,1.4998,1.5044,0,0,1.5008,1.5009,0,0,0,0,0,0,0,0,1.4838,1.4845,1.4903,1.4904,1.4904,1.4941,1.4933,1.4984,1.4945,1.493,1.4942,1.494,1.4976,1.4981,1.4993,1.5047,1.5049,1.5008,1.501,1.5011,1.5012,0,0,0,0,0,0,0,1.4835,1.4842,1.4921,1.4903,1.4905,1.4902,1.4907,1.4943,1.496,1.4931,1.493,1.4937,1.4977,1.499,1.4994,1.505,1.5008,1.5011,1.5013,1.5014,1.5143,1.5145,0,0,0,0,0,0,1.4831,1.484,1.4919,1.4922,1.4867,1.4905,1.4911,1.493,1.4959,1.4963,1.4938,1.4936,1.4985,1.4991,1.4996,1.5053,1.5011,1.5014,1.5016,1.5142,1.5143,1.5145,0,0,0,0,0,0,1.4828,1.4838,1.4917,1.4881,1.4891,1.4908,1.493,1.4932,1.4946,1.4965,1.4967,1.4949,1.4984,1.4992,1.5032,1.5054,1.5016,1.5019,1.514,1.5142,1.5144,1.5166,0,0,0,0,0,0,1.4825,1.4837,1.4856,1.4881,1.4893,1.4954,1.4931,1.4934,1.4952,1.495,1.4976,1.4979,1.4984,1.5028,1.5036,1.5058,1.5021,1.5138,1.5141,1.5144,1.5163,1.5169,1.5173,0,0,0,0,0,1.4821,1.486,1.4857,1.4866,1.4917,1.4955,1.4961,1.4967,1.4953,1.4972,1.4984,1.4978,1.505,1.5032,1.5041,1.5064,1.5137,1.514,1.5143,1.5161,1.5168,1.5173,0,0,0,0,0,0,1.4835,1.4863,1.486,1.4908,1.4929,1.4953,1.4977,1.4974,1.4999,1.4996,1.5002,1.5008,1.5049,1.5061,1.504,1.5111,1.5091,1.5097,1.5102,1.5108,1.5113,1.5109,1.5024,0,0,0,0,0,1.4844,1.4874,1.4896,1.4936,1.4947,1.496,1.4977,1.498,1.5001,1.501,1.5025,1.5046,1.5073,1.5091,1.5118,1.5165,1.517,1.5185,1.519,1.5194,1.5198,1.5223,1.523,1.5156,1.5156,1.5156,0,0,1.4862,1.4881,1.4899,1.4939,1.4956,1.4985,1.4968,1.5,1.5021,1.5015,1.5055,1.5066,1.5089,1.5133,1.5154,1.5144,1.522,1.5198,1.5201,1.5204,1.5227,1.5235,1.5241,1.5158,1.5158,1.5157,0,0,1.4911,1.4928,1.4963,1.498,1.5006,1.5014,1.5023,1.5047,1.5055,1.5095,1.509,1.5115,1.5163,1.518,1.5194,1.5248,1.5243,1.5256,1.5282,1.5306,1.5312,1.5317,1.5335,1.5342,1.526,1.526,1.5261,0,1.493,1.4975,1.4981,1.5014,1.5031,1.5027,1.5062,1.5078,1.511,1.5122,1.5111,1.517,1.5185,1.5233,1.5246,1.5258,1.5267,1.5253,1.531,1.5316,1.5321,1.5338,1.5346,1.5262,1.5262,1.5262,1.5261,0,1.4997,1.5028,1.5053,1.5086,1.5106,1.5139,1.5149,1.5169,1.5169,1.5178,1.5219,1.5237,1.5267,1.5278,1.5279,1.5325,1.5319,1.5309,1.529,1.5329,1.5346,1.5353,1.5264,1.5263,1.5263,1.5263,0,0,1.5056,1.5091,1.51,1.5115,1.5142,1.5166,1.5199,1.5228,1.5244,1.5267,1.5294,1.5333,1.5325,1.5341,1.5344,1.5365,1.5405,1.5353,1.5353,1.5362,1.5457,1.5464,1.5472,1.5402,1.5403,1.5405,1.5455,0,1.5107,1.5166,1.5172,1.5225,1.5253,1.5249,1.5277,1.5296,1.5306,1.533,1.534,1.5368,1.5355,1.5364,1.5385,1.5396,1.5425,1.5393,1.5427,1.5428,1.5421,1.5481,1.5489,1.5535,1.5462,1.5463,1.5464,0,1.5175,1.52,1.5255,1.5278,1.529,1.5316,1.5343,1.5367,1.5388,1.5393,1.5411,1.5411,1.5443,1.5422,1.5467,1.5445,1.5459,1.5466,1.5468,1.5471,1.5448,1.5486,1.555,1.5557,1.5474,1.5473,1.5472,0,1.5212,1.5259,1.5298,1.5311,1.5339,1.5356,1.5369,1.5389,1.5406,1.5429,1.544,1.5467,1.5481,1.5501,1.5507,1.5491,1.5551,1.5531,1.5555,1.5555,1.5568,1.5567,1.5636,1.5577,1.5577,1.5577,1.5577,0,1.5268,1.5302,1.5315,1.5339,1.5377,1.5383,1.5419,1.543,1.5448,1.5473,1.5471,1.5495,1.5501,1.5526,1.553,1.5566,1.5572,1.5577,1.5578,1.5577,1.5577,1.5586,1.5583,1.5579,1.5579,1.5578,1.5578,0,1.5316,1.5327,1.5369,1.5392,1.5398,1.5425,1.5444,1.5467,1.5475,1.5507,1.5515,1.5528,1.5556,1.5564,1.5598,1.5601,1.5643,1.5641,1.5636,1.5636,1.566,1.5658,1.5738,1.5748,1.5683,1.5683,1.5684,0,1.5352,1.5378,1.5403,1.5421,1.5434,1.5461,1.5479,1.5485,1.5503,1.5529,1.5548,1.5577,1.56,1.5645,1.5657,1.5683,1.5681,1.5707,1.5685,1.5683,1.5681,1.5679,1.5682,1.5711,1.5712,1.5713,1.5713,0,1.5413,1.5417,1.5442,1.547,1.5491,1.5513,1.5534,1.5547,1.5556,1.5577,1.5606,1.5624,1.5659,1.5686,1.5712,1.5724,1.572,1.572,1.5727,1.5727,1.5723,1.5725,1.5648,1.5718,1.5718,1.5717,1.5717,1.5717,1.5455,1.5478,1.55,1.5528,1.5545,1.5564,1.5586,1.5598,1.5623,1.5652,1.5654,1.5685,1.5705,1.5739,1.5752,1.5776,1.5768,1.5778,1.5781,1.5783,1.5785,1.5719,1.5781,1.5781,1.5781,1.578,1.578,0,1.5516,1.553,1.5556,1.5586,1.5608,1.5603,1.5625,1.5644,1.5672,1.5691,1.5714,1.5747,1.5774,1.5787,1.5814,1.583,1.5829,1.5837,1.5835,1.5838,1.5791,1.5782,1.5837,1.5837,1.5837,1.5837,1.5837,1.5837,1.5551,1.5589,1.5595,1.564,1.5653,1.5685,1.5698,1.5716,1.5731,1.5769,1.5791,1.58,1.5816,1.5844,1.5867,1.5871,1.588,1.5889,1.5891,1.5847,1.5841,1.5836,1.5828,1.5891,1.5891,1.5936,1.5937,1.5937]}]]